Lexington, NE

7:09 PM CST on November 13, 2019 (GMT -0600)
Kelly

Weather History for KLXN - June, 2019

Change the Weather History Date:

Monday, June 10, 2019

  Actual Average Record
Temperature  
Mean Temperature 58 °F -  
Max Temperature 74 °F 77 °F 96 °F (2013)
Min Temperature 41 °F 53 °F 41 °F (2019)
Degree Days  
Heating Degree Days 8    
Growing Degree Days 8 (Base 50)    
Moisture  
Dew Point 44 °F    
Average Humidity 62    
Maximum Humidity 100    
Minimum Humidity 30    
Precipitation  
Precipitation 0.00 in - - ()
Sea Level Pressure  
Sea Level Pressure 30.35 in    
Wind  
Wind Speed 6 mph (WSW)    
Max Wind Speed 17 mph    
Max Gust Speed 17 mph    
Visibility 10 miles    
Events      
Averages and records for this station are not official NWS values.
T = Trace of Precipitation, MM = Missing Value Source: NWS Daily Summary

Daily Weather History Graph

Daily Weather History Graph

Search for Another Location

Airport or City:

Astronomy

Jun. 10, 2019 Rise Set
Actual Time 6:07 AM CDT 9:09 PM CDT
Civil Twilight 5:34 AM CDT 9:43 PM CDT
Nautical Twilight 4:51 AM CDT 10:25 PM CDT
Astronomical Twilight 4:02 AM CDT 11:15 PM CDT
Moon 1:59 PM CDT (6/10) 2:23 AM CDT (6/10)
Length of Visible Light 16h 09m
Length of Day
15h 02m
First Quarter, 55% of the Moon is Illuminated
Jun 10
First Quarter
Jun 17
Full
Jun 25
Last Quarter
Jul 2
New
Jul 9
First Quarter

Hourly Weather History & Observations

Time (CDT) Temp. Windchill Dew Point Humidity Pressure Visibility Wind Dir Wind Speed Gust Speed Precip Events Conditions
12:15 AM 48.6 °F - 46.9 °F 94% 30.41 in 10.0 mi West 3.5 mph - N/A   Clear
12:35 AM 46.6 °F - 45.1 °F 95% 30.41 in 10.0 mi West 5.8 mph - N/A   Clear
12:55 AM 46.2 °F 44.1 °F 44.2 °F 93% 30.41 in 10.0 mi NW 4.6 mph - N/A   Clear
1:15 AM 46.6 °F - 45.3 °F 95% 30.41 in 10.0 mi WNW 3.5 mph - N/A   Clear
1:35 AM 44.4 °F 41.2 °F 43.7 °F 97% 30.41 in 10.0 mi NW 5.8 mph - N/A   Clear
1:55 AM 44.1 °F 40.8 °F 43.3 °F 97% 30.41 in 10.0 mi NW 5.8 mph - N/A   Clear
2:15 AM 43.3 °F 39.2 °F 42.8 °F 98% 30.41 in 10.0 mi NW 6.9 mph - N/A   Clear
2:35 AM 43.9 °F 41.3 °F 43.2 °F 97% 30.41 in 10.0 mi WNW 4.6 mph - N/A   Clear
2:55 AM 45.0 °F 43.5 °F 44.6 °F 99% 30.41 in 10.0 mi WSW 3.5 mph - N/A   Clear
3:15 AM 44.8 °F 43.3 °F 43.7 °F 96% 30.42 in 10.0 mi West 3.5 mph - N/A   Clear
3:35 AM 44.1 °F 40.8 °F 43.7 °F 99% 30.42 in 10.0 mi West 5.8 mph - N/A   Clear
3:55 AM 43.3 °F 39.9 °F 42.8 °F 98% 30.43 in 10.0 mi WNW 5.8 mph - N/A   Clear
4:15 AM 43.5 °F 39.4 °F 42.8 °F 97% 30.43 in 10.0 mi WNW 6.9 mph - N/A   Clear
4:35 AM 44.1 °F 40.1 °F 42.8 °F 95% 30.43 in 10.0 mi WNW 6.9 mph - N/A   Clear
4:55 AM 44.1 °F 40.1 °F 43.0 °F 96% 30.44 in 10.0 mi WNW 6.9 mph - N/A   Clear
5:15 AM 43.7 °F 41.1 °F 42.6 °F 96% 30.44 in 10.0 mi NW 4.6 mph - N/A   Clear
5:35 AM 42.8 °F - 41.9 °F 97% 30.44 in 10.0 mi Calm Calm - N/A   Clear
5:55 AM 42.8 °F 41.1 °F 42.3 °F 98% 30.45 in 10.0 mi WNW 3.5 mph - N/A   Clear
6:15 AM 41.0 °F 39.0 °F 41.0 °F 100% 30.45 in 10.0 mi WNW 3.5 mph - N/A   Clear
6:35 AM 42.3 °F - 41.9 °F 99% 30.45 in 10.0 mi Calm Calm - N/A   Clear
6:55 AM 43.3 °F 41.7 °F 42.8 °F 98% 30.46 in 10.0 mi NW 3.5 mph - N/A   Clear
7:15 AM 46.0 °F - 45.3 °F 97% 30.46 in 10.0 mi Calm Calm - N/A   Clear
7:35 AM 48.6 °F - 46.9 °F 94% 30.46 in 10.0 mi West 4.6 mph - N/A   Clear
7:55 AM 50.2 °F - 47.8 °F 92% 30.47 in 10.0 mi Calm Calm - N/A   Clear
8:15 AM 52.0 °F - 48.4 °F 88% 30.47 in 10.0 mi Calm Calm - N/A   Clear
8:35 AM 54.0 °F - 49.6 °F 85% 30.46 in 10.0 mi WNW 4.6 mph - N/A   Clear
8:55 AM 56.8 °F - 50.5 °F 79% 30.46 in 10.0 mi West 3.5 mph - N/A   Clear
9:15 AM 60.3 °F - 50.5 °F 70% 30.45 in 10.0 mi WSW 5.8 mph - N/A   Clear
9:35 AM 62.8 °F - 50.0 °F 63% 30.45 in 10.0 mi SW 9.2 mph - N/A   Clear
9:55 AM 64.2 °F - 48.2 °F 56% 30.45 in 10.0 mi WSW 10.4 mph - N/A   Clear
10:15 AM 65.5 °F - 46.6 °F 50% 30.44 in 10.0 mi WSW 8.1 mph - N/A   Clear
10:35 AM 66.4 °F - 47.1 °F 50% 30.44 in 10.0 mi WSW 8.1 mph - N/A   Clear
10:55 AM 66.9 °F - 44.6 °F 45% 30.44 in 10.0 mi SW 6.9 mph - N/A   Clear
11:15 AM 68.0 °F - 45.1 °F 44% 30.43 in 10.0 mi WSW 8.1 mph - N/A   Clear
11:35 AM 68.7 °F - 45.9 °F 44% 30.43 in 10.0 mi SW 8.1 mph - N/A   Clear
11:55 AM 68.9 °F - 42.3 °F 38% 30.42 in 10.0 mi WSW 8.1 mph - N/A   Clear
12:15 PM 69.6 °F - 42.8 °F 38% 30.41 in 10.0 mi West 9.2 mph - N/A   Clear
12:35 PM 69.8 °F - 43.2 °F 38% 30.40 in 10.0 mi WSW 8.1 mph - N/A   Clear
12:55 PM 70.7 °F - 43.9 °F 38% 30.39 in 10.0 mi SW 8.1 mph - N/A   Clear
1:15 PM 70.7 °F - 41.9 °F 35% 30.38 in 10.0 mi West 9.2 mph 17.3 mph N/A   Clear
1:35 PM 71.6 °F - 44.1 °F 37% 30.37 in 10.0 mi West 10.4 mph - N/A   Clear
1:55 PM 71.2 °F - 39.9 °F 32% 30.36 in 10.0 mi WSW 4.6 mph 17.3 mph N/A   Clear
2:15 PM 72.0 °F - 41.7 °F 34% 30.34 in 10.0 mi SW 6.9 mph - N/A   Clear
2:35 PM 72.3 °F - 41.7 °F 33% 30.34 in 10.0 mi WSW 3.5 mph 16.1 mph N/A   Clear
2:55 PM 73.0 °F - 42.6 °F 33% 30.33 in 10.0 mi WSW 9.2 mph - N/A   Clear
3:15 PM 73.6 °F - 43.2 °F 34% 30.31 in 10.0 mi SW 9.2 mph - N/A   Clear
3:35 PM 73.6 °F - 40.6 °F 30% 30.31 in 10.0 mi South 5.8 mph - N/A   Clear
3:55 PM 73.4 °F - 41.7 °F 32% 30.29 in 10.0 mi Calm Calm - N/A   Clear
4:15 PM 74.1 °F - 41.9 °F 31% 30.28 in 10.0 mi Calm Calm - N/A   Clear
4:35 PM 73.8 °F - 43.0 °F 33% 30.28 in 10.0 mi West 4.6 mph 9.2 mph N/A   Clear
4:55 PM 74.5 °F - 43.3 °F 33% 30.27 in 10.0 mi SW 5.8 mph - N/A   Clear
5:15 PM 74.3 °F - 43.7 °F 33% 30.25 in 10.0 mi South 6.9 mph - N/A   Clear
5:35 PM 74.1 °F - 43.5 °F 33% 30.24 in 10.0 mi South 11.5 mph - N/A   Clear
5:55 PM 74.5 °F - 44.8 °F 35% 30.24 in 10.0 mi SSW 11.5 mph 17.3 mph N/A   Clear
6:15 PM 73.9 °F - 43.9 °F 34% 30.24 in 10.0 mi South 8.1 mph - N/A   Clear
6:35 PM 73.4 °F - 43.9 °F 35% 30.23 in 10.0 mi SSW 11.5 mph - N/A   Clear
6:55 PM 72.9 °F - 42.8 °F 34% 30.22 in 10.0 mi SSW 9.2 mph 17.3 mph N/A   Clear
7:15 PM 72.3 °F - 42.4 °F 34% 30.21 in 10.0 mi South 11.5 mph - N/A   Clear
7:35 PM 71.2 °F - 42.4 °F 35% 30.21 in 10.0 mi South 10.4 mph - N/A   Clear
7:55 PM 70.7 °F - 41.5 °F 35% 30.20 in 10.0 mi South 11.5 mph - N/A   Scattered Clouds
8:15 PM 68.9 °F - 42.3 °F 38% 30.20 in 10.0 mi SSE 10.4 mph - N/A   Clear
8:35 PM 67.3 °F - 43.5 °F 42% 30.19 in 10.0 mi SSE 9.2 mph - N/A   Clear
8:55 PM 64.8 °F - 43.7 °F 46% 30.19 in 10.0 mi SSE 10.4 mph - N/A   Clear
9:15 PM 64.4 °F - 43.5 °F 47% 30.18 in 10.0 mi SSE 12.7 mph - N/A   Clear
9:35 PM 64.4 °F - 43.0 °F 46% 30.18 in 10.0 mi SSE 13.8 mph - N/A   Clear
9:55 PM 63.7 °F - 43.0 °F 47% 30.18 in 10.0 mi SSE 11.5 mph - N/A   Clear
10:15 PM 62.1 °F - 44.2 °F 52% 30.19 in 10.0 mi SSE 10.4 mph - N/A   Clear
10:35 PM 61.3 °F - 44.2 °F 53% 30.19 in 10.0 mi South 12.7 mph - N/A   Clear
10:55 PM 61.0 °F - 44.2 °F 54% 30.19 in 10.0 mi South 12.7 mph - N/A   Clear
11:15 PM 61.2 °F - 44.2 °F 54% 30.18 in 10.0 mi South 13.8 mph - N/A   Clear
11:35 PM 60.6 °F - 44.6 °F 56% 30.17 in 10.0 mi South 13.8 mph - N/A   Clear
11:55 PM 60.3 °F - 44.8 °F 57% 30.18 in 10.0 mi South 17.3 mph - N/A   Clear